Location: Dunedin
(45.8670°S, 170.5000°E)
Time: 09:29:01
(UTC+13:00)

ARGOS - Pass Details

Date: 24 January 2019
Orbit: 821 x 834 km, 98.5° (Epoch: 21 October)

Event Time Altitude Azimuth Distance (km) Brightness Sun altitude
Rises 23:10:46 0° 167° (SSE) 3,397 6.9 -15.6°
Reaches altitude 10° 23:13:08 10° 167° (SSE) 2,456 6.1 -15.8°
Maximum altitude 23:18:36 88° 254° (WSW) 839 3.2 -16.4°
Enters shadow 23:23:52 11° 343° (NNW) 2,374 5.2 -17.0°
